This is the latest recevied weather packets stored in our database for station/object KF0DL. If no packets are shown the sender has not sent any weather packets the latest 10 day(s).
| Time | Temp. | Humidity | Pressure | Rain* | Wind** | Luminosity | Snow |
|---|---|---|---|---|---|---|---|
| 1778181199 | 16.11° C | 17% | 1013.3 hPa | 0 mm | - | - | - |
| 1778180909 | 16.11° C | 17% | 1013.3 hPa | 0 mm | - | - | - |
| 1778180615 | 15.56° C | 17% | 1013.3 hPa | 0 mm | - | - | - |
| 1778180300 | 15.56° C | 16% | 1013.4 hPa | 0 mm | - | - | - |
| 1778180009 | 15.56° C | 18% | 1014.3 hPa | 0 mm | - | - | - |
| 1778179717 | 15.56° C | 18% | 1014.3 hPa | 0 mm | - | - | - |
| 1778179405 | 15.56° C | 19% | 1014.6 hPa | 0 mm | - | - | - |
| 1778179113 | 15.56° C | 18% | 1013.7 hPa | 0 mm | - | - | - |
| 1778178799 | 15° C | 18% | 1013.7 hPa | 0 mm | - | - | - |
| 1778178509 | 15° C | 19% | 1013.7 hPa | 0 mm | - | - | - |
| 1778178217 | 14.44° C | 19% | 1014 hPa | 0 mm | - | - | - |
| 1778177905 | 14.44° C | 20% | 1014 hPa | 0 mm | - | - | - |
| 1778177609 | 15° C | 20% | 1014 hPa | 0 mm | - | - | - |
| 1778177316 | 15° C | 20% | 1014.9 hPa | 0 mm | - | - | - |
| 1778177002 | 15° C | 20% | 1014.9 hPa | 0 mm | - | - | - |
| 1778176710 | 15° C | 22% | 1014.9 hPa | 0 mm | - | - | - |
| 1778176416 | 15° C | 23% | 1015.1 hPa | 0 mm | - | - | - |
| 1778176107 | 14.44° C | 23% | 1015.1 hPa | 0 mm | - | - | - |
| 1778175815 | 14.44° C | 24% | 1015.1 hPa | 0 mm | - | - | - |
| 1778175502 | 13.89° C | 24% | 1014.6 hPa | 0 mm | - | - | - |
| 1778175209 | 13.33° C | 26% | 1014.6 hPa | 0 mm | - | - | - |
| 1778174916 | 12.78° C | 25% | 1014.6 hPa | 0 mm | - | - | - |
| 1778174604 | 12.78° C | 25% | 1014.6 hPa | 0 mm | - | - | - |
| 1778174312 | 13.33° C | 26% | 1014.6 hPa | 0 mm | - | - | - |
| 1778174000 | 13.89° C | 25% | 1014.7 hPa | 0 mm | - | - | - |
* Rain latest hour (hover to see other rain measurements)
** Current wind speed in m/s (hover to see current wind gust speed)